Menu Horizontal
Willkommen auf der Webseite der privaten Wetterstation
von DIRNBERGER - Taufkirchen an der Pram

48°24´29,52" Nord  <>  13°32´13,20" Ost
Wetterdaten - Samstag, 16.12.2017 - Taufkirchen an der Pram     336 m ber NN www.spardirnberger.at
Wetterdaten: aktuell Samstag, 16.12.2017 21:30
Datum Zeit Temp. A. Feuchte A. Luftdruck Regen Wind Richtung Richtung Sonnenschein Zeit Regen ET UV Solar Windben Empfang
16.12.2017 21:30 1,4 C 94 % 1017,5 hPa 0,0 l/m 2,1 km/h (1 Bft) NW 306 0 min 0 min 0,000 mm 0,0 UV-I 0 W/m 13,1 km/h (3 Bft) 99,57 %
16.12.2017 21:20 1,4 C 94 % 1017,4 hPa 0,0 l/m 3,4 km/h (1 Bft) NW 318 0 min 0 min 0,000 mm 0,0 UV-I 0 W/m 11,2 km/h (2 Bft) 99,58 %
16.12.2017 21:10 1,4 C 94 % 1017,3 hPa 0,0 l/m 2,6 km/h (1 Bft) NW 315 0 min 0 min 0,000 mm 0,0 UV-I 0 W/m 11,2 km/h (2 Bft) 99,57 %
16.12.2017 21:00 1,4 C 94 % 1017,1 hPa 0,0 l/m 0,4 km/h (0 Bft) N-NW 329 0 min 0 min 0,000 mm 0,0 UV-I 0 W/m 5,6 km/h (1 Bft) 100,00 %
16.12.2017 20:50 1,4 C 94 % 1016,9 hPa 0,0 l/m 1,9 km/h (1 Bft) NW 307 0 min 0 min 0,000 mm 0,0 UV-I 0 W/m 9,3 km/h (2 Bft) 100,00 %
16.12.2017 20:40 1,4 C 95 % 1016,8 hPa 0,0 l/m 1,9 km/h (1 Bft) NW 305 0 min 0 min 0,000 mm 0,0 UV-I 0 W/m 11,2 km/h (2 Bft) 99,58 %
16.12.2017 20:30 1,5 C 95 % 1016,7 hPa 0,0 l/m 3,6 km/h (1 Bft) NW 306 0 min 0 min 0,000 mm 0,0 UV-I 0 W/m 9,3 km/h (2 Bft) 100,00 %
16.12.2017 20:20 1,5 C 95 % 1016,4 hPa 0,0 l/m 3,9 km/h (1 Bft) W-NW 300 0 min 0 min 0,000 mm 0,0 UV-I 0 W/m 11,2 km/h (2 Bft) 99,57 %
16.12.2017 20:10 1,6 C 95 % 1016,3 hPa 0,0 l/m 5,4 km/h (1 Bft) NW 305 0 min 0 min 0,000 mm 0,0 UV-I 0 W/m 14,9 km/h (3 Bft) 99,15 %
16.12.2017 20:00 1,6 C 95 % 1016,1 hPa 0,0 l/m 7,4 km/h (2 Bft) NW 315 0 min 0 min 0,000 mm 0,0 UV-I 0 W/m 16,8 km/h (3 Bft) 100,00 %
16.12.2017 19:50 1,6 C 95 % 1015,9 hPa 0,0 l/m 6,0 km/h (2 Bft) NW 322 0 min 0 min 0,000 mm 0,0 UV-I 0 W/m 13,1 km/h (3 Bft) 100,00 %
16.12.2017 19:40 1,6 C 95 % 1015,7 hPa 0,0 l/m 6,0 km/h (2 Bft) NW 317 0 min 0 min 0,000 mm 0,0 UV-I 0 W/m 13,1 km/h (3 Bft) 100,00 %
16.12.2017 19:30 1,6 C 95 % 1015,4 hPa 0,0 l/m 2,7 km/h (1 Bft) NW 313 0 min 0 min 0,000 mm 0,0 UV-I 0 W/m 11,2 km/h (2 Bft) 100,00 %
16.12.2017 19:20 1,5 C 95 % 1015,4 hPa 0,0 l/m 3,0 km/h (1 Bft) NW 319 0 min 0 min 0,000 mm 0,0 UV-I 0 W/m 13,1 km/h (3 Bft) 99,58 %
16.12.2017 19:10 1,4 C 95 % 1015,2 hPa 0,0 l/m 2,6 km/h (1 Bft) NW 308 0 min 0 min 0,000 mm 0,0 UV-I 0 W/m 11,2 km/h (2 Bft) 91,38 %
16.12.2017 19:00 1,4 C 95 % 1015,0 hPa 0,0 l/m 1,3 km/h (1 Bft) NW 315 0 min 0 min 0,000 mm 0,0 UV-I 0 W/m 7,5 km/h (2 Bft) 100,00 %
16.12.2017 18:50 1,4 C 95 % 1014,8 hPa 0,0 l/m 0,6 km/h (0 Bft) N-NW 333 0 min 0 min 0,000 mm 0,0 UV-I 0 W/m 5,6 km/h (1 Bft) 100,00 %
16.12.2017 18:40 1,4 C 95 % 1014,6 hPa 0,0 l/m 1,8 km/h (1 Bft) NW 307 0 min 0 min 0,000 mm 0,0 UV-I 0 W/m 7,5 km/h (2 Bft) 99,16 %
16.12.2017 18:30 1,3 C 95 % 1014,5 hPa 0,0 l/m 0,3 km/h (0 Bft) NW 309 0 min 0 min 0,000 mm 0,0 UV-I 0 W/m 7,5 km/h (2 Bft) 100,00 %
16.12.2017 18:20 1,3 C 95 % 1014,3 hPa 0,0 l/m 0,2 km/h (0 Bft) W-NW 302 0 min 0 min 0,000 mm 0,0 UV-I 0 W/m 3,7 km/h (1 Bft) 100,00 %
16.12.2017 18:10 1,4 C 95 % 1014,2 hPa 0,0 l/m 1,9 km/h (1 Bft) NW 315 0 min 0 min 0,000 mm 0,0 UV-I 0 W/m 7,5 km/h (2 Bft) 100,00 %
16.12.2017 18:00 1,4 C 95 % 1013,9 hPa 0,0 l/m 1,9 km/h (1 Bft) NW 311 0 min 0 min 0,000 mm 0,0 UV-I 0 W/m 9,3 km/h (2 Bft) 100,00 %
16.12.2017 17:50 1,5 C 95 % 1013,7 hPa 0,0 l/m 1,8 km/h (1 Bft) W-NW 296 0 min 0 min 0,000 mm 0,0 UV-I 0 W/m 7,5 km/h (2 Bft) 99,15 %
16.12.2017 17:40 1,6 C 95 % 1013,6 hPa 0,0 l/m 2,6 km/h (1 Bft) W 277 0 min 0 min 0,000 mm 0,0 UV-I 0 W/m 7,5 km/h (2 Bft) 99,57 %
16.12.2017 17:30 1,7 C 95 % 1013,5 hPa 0,0 l/m 4,2 km/h (1 Bft) W-NW 303 0 min 0 min 0,000 mm 0,0 UV-I 0 W/m 11,2 km/h (2 Bft) 100,00 %
16.12.2017 17:20 1,8 C 94 % 1013,3 hPa 0,0 l/m 5,0 km/h (1 Bft) NW 323 0 min 0 min 0,000 mm 0,0 UV-I 0 W/m 13,1 km/h (3 Bft) 100,00 %
16.12.2017 17:10 2,0 C 95 % 1013,2 hPa 0,2 l/m 3,4 km/h (1 Bft) NW 320 0 min 10 min 0,000 mm 0,0 UV-I 0 W/m 9,3 km/h (2 Bft) 98,72 %
16.12.2017 17:00 2,1 C 95 % 1013,0 hPa 0,0 l/m 3,6 km/h (1 Bft) NW 316 0 min 0 min 0,000 mm 0,0 UV-I 0 W/m 13,1 km/h (3 Bft) 99,57 %
16.12.2017 16:50 2,3 C 95 % 1012,9 hPa 0,0 l/m 8,2 km/h (2 Bft) NW 306 0 min 0 min 0,000 mm 0,0 UV-I 0 W/m 16,8 km/h (3 Bft) 100,00 %
16.12.2017 16:40 2,4 C 95 % 1012,7 hPa 0,0 l/m 9,2 km/h (2 Bft) N-NW 329 0 min 0 min 0,000 mm 0,0 UV-I 0 W/m 16,8 km/h (3 Bft) 90,91 %
16.12.2017 16:30 2,6 C 96 % 1012,4 hPa 0,0 l/m 4,3 km/h (1 Bft) N-NW 327 0 min 0 min 0,000 mm 0,0 UV-I 0 W/m 11,2 km/h (2 Bft) 100,00 %
16.12.2017 16:20 2,4 C 96 % 1012,3 hPa 0,0 l/m 0,5 km/h (0 Bft) N-NW 328 0 min 0 min 0,000 mm 0,0 UV-I 0 W/m 5,6 km/h (1 Bft) 100,00 %
16.12.2017 16:10 2,3 C 96 % 1012,2 hPa 0,0 l/m 0,0 km/h (0 Bft) N-NW 328 0 min 0 min 0,000 mm 0,0 UV-I 0 W/m 0,0 km/h (0 Bft) 100,00 %
16.12.2017 16:00 2,3 C 96 % 1012,1 hPa 0,0 l/m 0,0 km/h (0 Bft) N-NW 328 0 min 0 min 0,000 mm 0,0 UV-I 0 W/m 0,0 km/h (0 Bft) 100,00 %
16.12.2017 15:50 2,3 C 96 % 1012,0 hPa 0,0 l/m 0,0 km/h (0 Bft) N-NW 328 0 min 0 min 0,000 mm 0,0 UV-I 0 W/m 0,0 km/h (0 Bft) 99,57 %
16.12.2017 15:40 2,4 C 96 % 1011,8 hPa 0,0 l/m 0,0 km/h (0 Bft) N-NW 328 0 min 0 min 0,000 mm 0,0 UV-I 0 W/m 0,0 km/h (0 Bft) 100,00 %
16.12.2017 15:30 2,4 C 96 % 1011,6 hPa 0,0 l/m 0,0 km/h (0 Bft) N-NW 328 0 min 0 min 0,000 mm 0,0 UV-I 4 W/m 1,9 km/h (1 Bft) 99,57 %
16.12.2017 15:20 2,5 C 96 % 1011,5 hPa 0,0 l/m 0,0 km/h (0 Bft) N-NW 328 0 min 0 min 0,000 mm 0,0 UV-I 8 W/m 0,0 km/h (0 Bft) 100,00 %
16.12.2017 15:10 2,6 C 96 % 1011,4 hPa 0,0 l/m 0,0 km/h (0 Bft) N-NW 328 0 min 0 min 0,000 mm 0,0 UV-I 8 W/m 0,0 km/h (0 Bft) 100,00 %
16.12.2017 15:00 2,5 C 96 % 1011,3 hPa 0,0 l/m 0,0 km/h (0 Bft) N-NW 328 0 min 0 min 0,025 mm 0,0 UV-I 19 W/m 0,0 km/h (0 Bft) 100,00 %
16.12.2017 14:50 2,4 C 96 % 1011,3 hPa 0,0 l/m 0,0 km/h (0 Bft) N-NW 328 0 min 0 min 0,000 mm 0,0 UV-I 39 W/m 0,0 km/h (0 Bft) 100,00 %
16.12.2017 14:40 2,4 C 96 % 1011,2 hPa 0,0 l/m 0,0 km/h (0 Bft) N-NW 328 0 min 0 min 0,000 mm 0,0 UV-I 51 W/m 0,0 km/h (0 Bft) 98,72 %
16.12.2017 14:30 2,3 C 96 % 1011,0 hPa 0,0 l/m 0,0 km/h (0 Bft) N-NW 328 0 min 0 min 0,000 mm 0,0 UV-I 58 W/m 0,0 km/h (0 Bft) 100,00 %
16.12.2017 14:20 2,3 C 96 % 1011,0 hPa 0,0 l/m 0,0 km/h (0 Bft) N-NW 328 0 min 0 min 0,000 mm 0,0 UV-I 59 W/m 0,0 km/h (0 Bft) 100,00 %
16.12.2017 14:10 2,2 C 96 % 1010,8 hPa 0,0 l/m 0,0 km/h (0 Bft) N-NW 328 0 min 0 min 0,000 mm 0,0 UV-I 54 W/m 0,0 km/h (0 Bft) 99,57 %
16.12.2017 14:00 2,2 C 97 % 1010,7 hPa 0,0 l/m 0,0 km/h (0 Bft) N-NW 328 0 min 0 min 0,025 mm 0,3 UV-I 66 W/m 1,9 km/h (1 Bft) 100,00 %
16.12.2017 13:50 2,2 C 97 % 1010,6 hPa 0,0 l/m 0,0 km/h (0 Bft) N-NW 328 0 min 0 min 0,000 mm 0,0 UV-I 36 W/m 0,0 km/h (0 Bft) 99,57 %
16.12.2017 13:40 2,1 C 96 % 1010,7 hPa 0,0 l/m 0,0 km/h (0 Bft) N-NW 328 0 min 0 min 0,000 mm 0,0 UV-I 38 W/m 0,0 km/h (0 Bft) 100,00 %
16.12.2017 13:30 2,0 C 96 % 1010,6 hPa 0,0 l/m 0,0 km/h (0 Bft) N-NW 328 0 min 0 min 0,000 mm 0,0 UV-I 51 W/m 0,0 km/h (0 Bft) 99,15 %
16.12.2017 13:20 2,0 C 97 % 1010,5 hPa 0,0 l/m 0,0 km/h (0 Bft) N-NW 328 0 min 0 min 0,000 mm 0,0 UV-I 38 W/m 0,0 km/h (0 Bft) 99,57 %
16.12.2017 13:10 2,0 C 97 % 1010,5 hPa 0,0 l/m 0,0 km/h (0 Bft) N-NW 328 0 min 0 min 0,000 mm 0,0 UV-I 41 W/m 0,0 km/h (0 Bft) 99,57 %
16.12.2017 13:00 1,9 C 97 % 1010,4 hPa 0,0 l/m 0,0 km/h (0 Bft) N-NW 328 0 min 0 min 0,026 mm 0,0 UV-I 31 W/m 0,0 km/h (0 Bft) 99,15 %
16.12.2017 12:50 1,9 C 97 % 1010,2 hPa 0,0 l/m 0,5 km/h (0 Bft) N-NW 328 0 min 0 min 0,000 mm 0,0 UV-I 40 W/m 5,6 km/h (1 Bft) 100,00 %
16.12.2017 12:40 1,9 C 97 % 1010,2 hPa 0,0 l/m 0,1 km/h (0 Bft) N-NW 328 0 min 0 min 0,000 mm 0,0 UV-I 47 W/m 3,7 km/h (1 Bft) 100,00 %
16.12.2017 12:30 1,8 C 97 % 1010,1 hPa 0,0 l/m 1,9 km/h (1 Bft) N-NW 328 0 min 0 min 0,000 mm 0,0 UV-I 42 W/m 5,6 km/h (1 Bft) 99,13 %
16.12.2017 12:20 1,8 C 97 % 1009,8 hPa 0,0 l/m 1,0 km/h (0 Bft) NW 321 0 min 0 min 0,000 mm 0,4 UV-I 71 W/m 5,6 km/h (1 Bft) 100,00 %
16.12.2017 12:10 1,7 C 97 % 1009,8 hPa 0,0 l/m 0,2 km/h (0 Bft) NW 321 0 min 0 min 0,000 mm 0,0 UV-I 45 W/m 3,7 km/h (1 Bft) 99,58 %
16.12.2017 12:00 1,7 C 97 % 1009,8 hPa 0,0 l/m 1,0 km/h (0 Bft) NW 321 0 min 0 min 0,025 mm 0,2 UV-I 46 W/m 5,6 km/h (1 Bft) 99,56 %
16.12.2017 11:50 1,7 C 97 % 1009,7 hPa 0,0 l/m 0,0 km/h (0 Bft) SW 231 0 min 0 min 0,000 mm 0,5 UV-I 63 W/m 1,9 km/h (1 Bft) 100,00 %
16.12.2017 11:40 1,6 C 97 % 1009,5 hPa 0,0 l/m 0,5 km/h (0 Bft) SW 226 0 min 0 min 0,000 mm 0,5 UV-I 75 W/m 3,7 km/h (1 Bft) 99,57 %
16.12.2017 11:30 1,3 C 97 % 1009,3 hPa 0,0 l/m 0,0 km/h (0 Bft) S 173 0 min 0 min 0,000 mm 0,5 UV-I 70 W/m 0,0 km/h (0 Bft) 91,34 %
16.12.2017 11:20 1,2 C 97 % 1009,3 hPa 0,0 l/m 0,0 km/h (0 Bft) S 173 0 min 0 min 0,001 mm 0,3 UV-I 61 W/m 0,0 km/h (0 Bft) 100,00 %
16.12.2017 11:10 1,1 C 97 % 1009,3 hPa 0,0 l/m 0,0 km/h (0 Bft) S 173 0 min 0 min 0,025 mm 0,0 UV-I 47 W/m 0,0 km/h (0 Bft) 100,00 %
16.12.2017 11:00 1,1 C 97 % 1009,3 hPa 0,0 l/m 0,0 km/h (0 Bft) S 173 0 min 0 min 0,000 mm 0,3 UV-I 62 W/m 0,0 km/h (0 Bft) 100,00 %
16.12.2017 10:50 0,9 C 97 % 1009,2 hPa 0,0 l/m 0,0 km/h (0 Bft) S 173 0 min 0 min 0,000 mm 0,0 UV-I 54 W/m 0,0 km/h (0 Bft) 90,99 %
16.12.2017 10:40 0,8 C 97 % 1009,2 hPa 0,0 l/m 0,0 km/h (0 Bft) S 173 0 min 0 min 0,000 mm 0,0 UV-I 44 W/m 0,0 km/h (0 Bft) 100,00 %
16.12.2017 10:30 0,7 C 97 % 1009,2 hPa 0,0 l/m 0,0 km/h (0 Bft) S 173 0 min 0 min 0,000 mm 0,0 UV-I 41 W/m 0,0 km/h (0 Bft) 100,00 %
16.12.2017 10:20 0,7 C 97 % 1009,0 hPa 0,0 l/m 0,0 km/h (0 Bft) S 173 0 min 0 min 0,000 mm 0,0 UV-I 51 W/m 0,0 km/h (0 Bft) 100,00 %
16.12.2017 10:10 0,6 C 97 % 1008,9 hPa 0,0 l/m 0,0 km/h (0 Bft) S 173 0 min 0 min 0,000 mm 0,0 UV-I 58 W/m 0,0 km/h (0 Bft) 99,57 %
16.12.2017 10:00 0,5 C 97 % 1008,6 hPa 0,0 l/m 0,0 km/h (0 Bft) S 173 0 min 0 min 0,025 mm 0,0 UV-I 51 W/m 0,0 km/h (0 Bft) 91,34 %
16.12.2017 09:50 0,4 C 97 % 1008,4 hPa 0,0 l/m 0,0 km/h (0 Bft) S 173 0 min 0 min 0,000 mm 0,0 UV-I 61 W/m 0,0 km/h (0 Bft) 99,15 %
16.12.2017 09:40 0,3 C 97 % 1008,3 hPa 0,2 l/m 0,0 km/h (0 Bft) S 173 0 min 10 min 0,000 mm 0,0 UV-I 53 W/m 0,0 km/h (0 Bft) 100,00 %
16.12.2017 09:30 0,2 C 96 % 1008,2 hPa 0,0 l/m 0,0 km/h (0 Bft) S 173 0 min 0 min 0,000 mm 0,0 UV-I 42 W/m 0,0 km/h (0 Bft) 100,00 %
16.12.2017 09:20 0,1 C 97 % 1008,0 hPa 0,0 l/m 0,0 km/h (0 Bft) S 173 0 min 0 min 0,000 mm 0,0 UV-I 42 W/m 0,0 km/h (0 Bft) 90,75 %
16.12.2017 09:10 0,0 C 97 % 1007,9 hPa 0,0 l/m 0,0 km/h (0 Bft) S 173 0 min 0 min 0,000 mm 0,0 UV-I 43 W/m 0,0 km/h (0 Bft) 100,00 %
16.12.2017 09:00 -0,1 C 96 % 1007,8 hPa 0,0 l/m 0,0 km/h (0 Bft) S 173 0 min 0 min 0,000 mm 0,0 UV-I 34 W/m 0,0 km/h (0 Bft) 100,00 %
16.12.2017 08:50 -0,2 C 96 % 1007,6 hPa 0,0 l/m 0,0 km/h (0 Bft) S 173 0 min 0 min 0,000 mm 0,0 UV-I 22 W/m 0,0 km/h (0 Bft) 99,57 %
16.12.2017 08:40 -0,2 C 96 % 1007,4 hPa 0,0 l/m 0,0 km/h (0 Bft) S 173 0 min 0 min 0,000 mm 0,0 UV-I 13 W/m 0,0 km/h (0 Bft) 100,00 %
16.12.2017 08:30 -0,2 C 96 % 1007,3 hPa 0,0 l/m 0,0 km/h (0 Bft) S 173 0 min 0 min 0,000 mm 0,0 UV-I 8 W/m 0,0 km/h (0 Bft) 100,00 %
16.12.2017 08:20 -0,2 C 96 % 1007,1 hPa 0,0 l/m 0,0 km/h (0 Bft) S 173 0 min 0 min 0,000 mm 0,0 UV-I 0 W/m 0,0 km/h (0 Bft) 100,00 %
16.12.2017 08:10 -0,3 C 96 % 1007,1 hPa 0,0 l/m 0,0 km/h (0 Bft) S 173 0 min 0 min 0,000 mm 0,0 UV-I 0 W/m 0,0 km/h (0 Bft) 100,00 %
16.12.2017 08:00 -0,3 C 96 % 1007,1 hPa 0,0 l/m 0,0 km/h (0 Bft) S 173 0 min 0 min 0,000 mm 0,0 UV-I 0 W/m 0,0 km/h (0 Bft) 99,58 %
16.12.2017 07:50 -0,3 C 96 % 1006,9 hPa 0,0 l/m 0,0 km/h (0 Bft) S 173 0 min 0 min 0,000 mm 0,0 UV-I 0 W/m 0,0 km/h (0 Bft) 100,00 %
16.12.2017 07:45 -0,3 C 96 % 1006,7 hPa 0,0 l/m 0,0 km/h (0 Bft) N 0 0 min 0 min 0,000 mm 0,0 UV-I 0 W/m 0,0 km/h (0 Bft) 90,35 %
16.12.2017 07:40 -0,3 C 96 % 1006,6 hPa 0,0 l/m 0,0 km/h (0 Bft) N 0 0 min 0 min 0,000 mm 0,0 UV-I 0 W/m 0,0 km/h (0 Bft) 100,00 %
16.12.2017 07:35 -0,3 C 96 % 1006,5 hPa 0,0 l/m 0,0 km/h (0 Bft) N 0 0 min 0 min 0,000 mm 0,0 UV-I 0 W/m 0,0 km/h (0 Bft) 100,00 %
16.12.2017 07:30 -0,3 C 96 % 1006,5 hPa 0,0 l/m 0,0 km/h (0 Bft) N 0 0 min 0 min 0,000 mm 0,0 UV-I 0 W/m 0,0 km/h (0 Bft) 100,00 %
16.12.2017 07:25 -0,3 C 96 % 1006,5 hPa 0,0 l/m 0,0 km/h (0 Bft) N 0 0 min 0 min 0,000 mm 0,0 UV-I 0 W/m 0,0 km/h (0 Bft) 100,00 %
16.12.2017 07:20 -0,3 C 96 % 1006,4 hPa 0,0 l/m 0,0 km/h (0 Bft) N 0 0 min 0 min 0,000 mm 0,0 UV-I 0 W/m 0,0 km/h (0 Bft) 100,00 %
16.12.2017 07:15 -0,4 C 96 % 1006,3 hPa 0,0 l/m 0,0 km/h (0 Bft) N 0 0 min 0 min 0,000 mm 0,0 UV-I 0 W/m 0,0 km/h (0 Bft) 100,00 %
16.12.2017 07:10 -0,3 C 96 % 1006,2 hPa 0,0 l/m 0,0 km/h (0 Bft) N 0 0 min 0 min 0,000 mm 0,0 UV-I 0 W/m 0,0 km/h (0 Bft) 100,00 %
16.12.2017 07:05 -0,4 C 96 % 1006,3 hPa 0,0 l/m 0,0 km/h (0 Bft) N 0 0 min 0 min 0,000 mm 0,0 UV-I 0 W/m 0,0 km/h (0 Bft) 100,00 %
16.12.2017 07:00 -0,3 C 96 % 1006,2 hPa 0,0 l/m 0,0 km/h (0 Bft) N 0 0 min 0 min 0,000 mm 0,0 UV-I 0 W/m 0,0 km/h (0 Bft) 100,00 %
16.12.2017 06:55 -0,3 C 96 % 1006,2 hPa 0,0 l/m 0,0 km/h (0 Bft) N 0 0 min 0 min 0,000 mm 0,0 UV-I 0 W/m 0,0 km/h (0 Bft) 100,00 %
16.12.2017 06:50 -0,3 C 96 % 1006,2 hPa 0,0 l/m 0,0 km/h (0 Bft) N 0 0 min 0 min 0,000 mm 0,0 UV-I 0 W/m 0,0 km/h (0 Bft) 100,00 %
16.12.2017 06:45 -0,3 C 96 % 1006,1 hPa 0,0 l/m 0,0 km/h (0 Bft) N 0 0 min 0 min 0,000 mm 0,0 UV-I 0 W/m 0,0 km/h (0 Bft) 100,00 %
16.12.2017 06:40 -0,3 C 96 % 1006,0 hPa 0,0 l/m 0,0 km/h (0 Bft) N 0 0 min 0 min 0,000 mm 0,0 UV-I 0 W/m 0,0 km/h (0 Bft) 100,00 %
16.12.2017 06:35 -0,4 C 96 % 1005,9 hPa 0,0 l/m 0,0 km/h (0 Bft) N 0 0 min 0 min 0,000 mm 0,0 UV-I 0 W/m 0,0 km/h (0 Bft) 100,00 %
16.12.2017 06:30 -0,4 C 96 % 1005,9 hPa 0,0 l/m 0,0 km/h (0 Bft) N 0 0 min 0 min 0,000 mm 0,0 UV-I 0 W/m 0,0 km/h (0 Bft) 100,00 %
16.12.2017 06:25 -0,5 C 96 % 1006,0 hPa 0,0 l/m 0,0 km/h (0 Bft) N 0 0 min 0 min 0,000 mm 0,0 UV-I 0 W/m 0,0 km/h (0 Bft) 100,00 %
16.12.2017 06:20 -0,5 C 96 % 1005,9 hPa 0,0 l/m 0,0 km/h (0 Bft) N 0 0 min 0 min 0,000 mm 0,0 UV-I 0 W/m 0,0 km/h (0 Bft) 100,00 %
16.12.2017 06:15 -0,6 C 96 % 1005,7 hPa 0,0 l/m 0,0 km/h (0 Bft) N 0 0 min 0 min 0,000 mm 0,0 UV-I 0 W/m 0,0 km/h (0 Bft) 100,00 %
16.12.2017 06:10 -0,6 C 96 % 1005,7 hPa 0,0 l/m 0,0 km/h (0 Bft) N 0 0 min 0 min 0,000 mm 0,0 UV-I 0 W/m 0,0 km/h (0 Bft) 100,00 %
16.12.2017 06:05 -0,6 C 96 % 1005,6 hPa 0,0 l/m 0,0 km/h (0 Bft) N 0 0 min 0 min 0,000 mm 0,0 UV-I 0 W/m 0,0 km/h (0 Bft) 100,00 %
16.12.2017 06:00 -0,6 C 96 % 1005,6 hPa 0,0 l/m 0,0 km/h (0 Bft) N 0 0 min 0 min 0,000 mm 0,0 UV-I 0 W/m 0,0 km/h (0 Bft) 100,00 %
16.12.2017 05:55 -0,6 C 96 % 1005,6 hPa 0,0 l/m 0,0 km/h (0 Bft) N 0 0 min 0 min 0,000 mm 0,0 UV-I 0 W/m 0,0 km/h (0 Bft) 100,00 %
16.12.2017 05:50 -0,6 C 96 % 1005,5 hPa 0,0 l/m 0,0 km/h (0 Bft) N 0 0 min 0 min 0,000 mm 0,0 UV-I 0 W/m 0,0 km/h (0 Bft) 100,00 %
16.12.2017 05:45 -0,6 C 96 % 1005,5 hPa 0,0 l/m 0,0 km/h (0 Bft) N 0 0 min 0 min 0,000 mm 0,0 UV-I 0 W/m 0,0 km/h (0 Bft) 100,00 %
16.12.2017 05:40 -0,6 C 96 % 1005,4 hPa 0,0 l/m 0,0 km/h (0 Bft) N 0 0 min 0 min 0,000 mm 0,0 UV-I 0 W/m 0,0 km/h (0 Bft) 81,58 %
16.12.2017 05:35 -0,6 C 96 % 1005,4 hPa 0,0 l/m 0,0 km/h (0 Bft) N 0 0 min 0 min 0,000 mm 0,0 UV-I 0 W/m 0,0 km/h (0 Bft) 100,00 %
16.12.2017 05:30 -0,6 C 96 % 1005,4 hPa 0,0 l/m 0,0 km/h (0 Bft) N 0 0 min 0 min 0,000 mm 0,0 UV-I 0 W/m 0,0 km/h (0 Bft) 100,00 %
16.12.2017 05:25 -0,6 C 96 % 1005,4 hPa 0,0 l/m 0,0 km/h (0 Bft) N 0 0 min 0 min 0,000 mm 0,0 UV-I 0 W/m 0,0 km/h (0 Bft) 100,00 %
16.12.2017 05:20 -0,6 C 96 % 1005,3 hPa 0,0 l/m 0,0 km/h (0 Bft) N 0 0 min 0 min 0,000 mm 0,0 UV-I 0 W/m 0,0 km/h (0 Bft) 100,00 %
16.12.2017 05:15 -0,6 C 96 % 1005,4 hPa 0,0 l/m 0,0 km/h (0 Bft) N 0 0 min 0 min 0,000 mm 0,0 UV-I 0 W/m 0,0 km/h (0 Bft) 100,00 %
16.12.2017 05:10 -0,6 C 96 % 1005,4 hPa 0,0 l/m 0,0 km/h (0 Bft) N 0 0 min 0 min 0,000 mm 0,0 UV-I 0 W/m 0,0 km/h (0 Bft) 100,00 %
16.12.2017 05:05 -0,6 C 96 % 1005,3 hPa 0,0 l/m 0,0 km/h (0 Bft) N 0 0 min 0 min 0,000 mm 0,0 UV-I 0 W/m 0,0 km/h (0 Bft) 100,00 %
16.12.2017 05:00 -0,6 C 96 % 1005,3 hPa 0,0 l/m 0,0 km/h (0 Bft) N 0 0 min 0 min 0,000 mm 0,0 UV-I 0 W/m 0,0 km/h (0 Bft) 100,00 %
16.12.2017 04:55 -0,6 C 96 % 1005,2 hPa 0,0 l/m 0,0 km/h (0 Bft) N 0 0 min 0 min 0,000 mm 0,0 UV-I 0 W/m 0,0 km/h (0 Bft) 100,00 %
16.12.2017 04:50 -0,6 C 96 % 1005,1 hPa 0,0 l/m 0,0 km/h (0 Bft) N 0 0 min 0 min 0,000 mm 0,0 UV-I 0 W/m 0,0 km/h (0 Bft) 100,00 %
16.12.2017 04:45 -0,6 C 96 % 1005,1 hPa 0,0 l/m 0,0 km/h (0 Bft) N 0 0 min 0 min 0,000 mm 0,0 UV-I 0 W/m 0,0 km/h (0 Bft) 100,00 %
16.12.2017 04:40 -0,6 C 96 % 1005,1 hPa 0,0 l/m 0,0 km/h (0 Bft) N 0 0 min 0 min 0,000 mm 0,0 UV-I 0 W/m 0,0 km/h (0 Bft) 100,00 %
16.12.2017 04:35 -0,7 C 96 % 1005,1 hPa 0,0 l/m 0,0 km/h (0 Bft) N 0 0 min 0 min 0,000 mm 0,0 UV-I 0 W/m 0,0 km/h (0 Bft) 100,00 %
16.12.2017 04:30 -0,7 C 96 % 1005,0 hPa 0,0 l/m 0,0 km/h (0 Bft) N 0 0 min 0 min 0,000 mm 0,0 UV-I 0 W/m 0,0 km/h (0 Bft) 100,00 %
16.12.2017 04:25 -0,8 C 96 % 1005,0 hPa 0,0 l/m 0,0 km/h (0 Bft) S 180 0 min 0 min 0,000 mm 0,0 UV-I 0 W/m 1,6 km/h (1 Bft) 100,00 %
16.12.2017 04:20 -0,8 C 96 % 1005,0 hPa 0,0 l/m 0,0 km/h (0 Bft) N 0 0 min 0 min 0,000 mm 0,0 UV-I 0 W/m 0,0 km/h (0 Bft) 100,00 %
16.12.2017 04:15 -0,8 C 96 % 1005,0 hPa 0,0 l/m 0,0 km/h (0 Bft) N 0 0 min 0 min 0,000 mm 0,0 UV-I 0 W/m 0,0 km/h (0 Bft) 100,00 %
16.12.2017 04:10 -0,8 C 96 % 1004,9 hPa 0,0 l/m 0,0 km/h (0 Bft) N 0 0 min 0 min 0,000 mm 0,0 UV-I 0 W/m 0,0 km/h (0 Bft) 100,00 %
16.12.2017 04:05 -0,9 C 96 % 1004,9 hPa 0,0 l/m 0,0 km/h (0 Bft) N 0 0 min 0 min 0,000 mm 0,0 UV-I 0 W/m 0,0 km/h (0 Bft) 100,00 %
16.12.2017 04:00 -0,9 C 96 % 1004,9 hPa 0,0 l/m 0,0 km/h (0 Bft) N 0 0 min 0 min 0,000 mm 0,0 UV-I 0 W/m 0,0 km/h (0 Bft) 100,00 %
16.12.2017 03:55 -0,9 C 96 % 1004,8 hPa 0,0 l/m 0,0 km/h (0 Bft) N 0 0 min 0 min 0,000 mm 0,0 UV-I 0 W/m 0,0 km/h (0 Bft) 100,00 %
16.12.2017 03:50 -0,9 C 96 % 1004,8 hPa 0,0 l/m 0,0 km/h (0 Bft) N 0 0 min 0 min 0,000 mm 0,0 UV-I 0 W/m 0,0 km/h (0 Bft) 100,00 %
16.12.2017 03:45 -0,9 C 96 % 1004,8 hPa 0,0 l/m 0,0 km/h (0 Bft) N 0 0 min 0 min 0,000 mm 0,0 UV-I 0 W/m 0,0 km/h (0 Bft) 100,00 %
16.12.2017 03:40 -0,9 C 96 % 1004,7 hPa 0,0 l/m 0,0 km/h (0 Bft) N 0 0 min 0 min 0,000 mm 0,0 UV-I 0 W/m 0,0 km/h (0 Bft) 100,00 %
16.12.2017 03:35 -0,9 C 96 % 1004,7 hPa 0,0 l/m 0,0 km/h (0 Bft) N 0 0 min 0 min 0,000 mm 0,0 UV-I 0 W/m 0,0 km/h (0 Bft) 100,00 %
16.12.2017 03:30 -0,9 C 96 % 1004,7 hPa 0,0 l/m 0,0 km/h (0 Bft) S 180 0 min 0 min 0,000 mm 0,0 UV-I 0 W/m 1,6 km/h (1 Bft) 100,00 %
16.12.2017 03:25 -0,8 C 96 % 1004,7 hPa 0,0 l/m 0,0 km/h (0 Bft) N 0 0 min 0 min 0,000 mm 0,0 UV-I 0 W/m 0,0 km/h (0 Bft) 100,00 %
16.12.2017 03:20 -0,8 C 96 % 1004,6 hPa 0,0 l/m 0,0 km/h (0 Bft) N 0 0 min 0 min 0,000 mm 0,0 UV-I 0 W/m 0,0 km/h (0 Bft) 100,00 %
16.12.2017 03:15 -0,8 C 96 % 1004,6 hPa 0,0 l/m 0,0 km/h (0 Bft) N 0 0 min 0 min 0,000 mm 0,0 UV-I 0 W/m 0,0 km/h (0 Bft) 100,00 %
16.12.2017 03:10 -0,8 C 96 % 1004,6 hPa 0,0 l/m 0,0 km/h (0 Bft) N 0 0 min 0 min 0,000 mm 0,0 UV-I 0 W/m 0,0 km/h (0 Bft) 100,00 %
16.12.2017 03:05 -0,7 C 96 % 1004,6 hPa 0,0 l/m 0,0 km/h (0 Bft) N 0 0 min 0 min 0,000 mm 0,0 UV-I 0 W/m 0,0 km/h (0 Bft) 100,00 %
16.12.2017 03:00 -0,7 C 96 % 1004,5 hPa 0,0 l/m 0,0 km/h (0 Bft) S 180 0 min 0 min 0,000 mm 0,0 UV-I 0 W/m 3,2 km/h (1 Bft) 100,00 %
16.12.2017 02:55 -0,7 C 96 % 1004,5 hPa 0,0 l/m 0,0 km/h (0 Bft) S 180 0 min 0 min 0,000 mm 0,0 UV-I 0 W/m 1,6 km/h (1 Bft) 100,00 %
16.12.2017 02:50 -0,8 C 96 % 1004,5 hPa 0,0 l/m 0,0 km/h (0 Bft) N 0 0 min 0 min 0,000 mm 0,0 UV-I 0 W/m 0,0 km/h (0 Bft) 100,00 %
16.12.2017 02:45 -0,8 C 96 % 1004,5 hPa 0,0 l/m 0,0 km/h (0 Bft) N 0 0 min 0 min 0,000 mm 0,0 UV-I 0 W/m 0,0 km/h (0 Bft) 100,00 %
16.12.2017 02:40 -0,8 C 96 % 1004,6 hPa 0,0 l/m 0,0 km/h (0 Bft) N 0 0 min 0 min 0,000 mm 0,0 UV-I 0 W/m 0,0 km/h (0 Bft) 100,00 %
16.12.2017 02:35 -0,8 C 96 % 1004,5 hPa 0,0 l/m 0,0 km/h (0 Bft) N 0 0 min 0 min 0,000 mm 0,0 UV-I 0 W/m 0,0 km/h (0 Bft) 100,00 %
16.12.2017 02:30 -0,8 C 96 % 1004,5 hPa 0,0 l/m 0,0 km/h (0 Bft) N 0 0 min 0 min 0,000 mm 0,0 UV-I 0 W/m 0,0 km/h (0 Bft) 100,00 %
16.12.2017 02:25 -0,8 C 96 % 1004,5 hPa 0,0 l/m 0,0 km/h (0 Bft) N 0 0 min 0 min 0,000 mm 0,0 UV-I 0 W/m 0,0 km/h (0 Bft) 100,00 %
16.12.2017 02:20 -0,8 C 96 % 1004,5 hPa 0,0 l/m 0,0 km/h (0 Bft) N 0 0 min 0 min 0,000 mm 0,0 UV-I 0 W/m 0,0 km/h (0 Bft) 100,00 %
16.12.2017 02:15 -0,7 C 96 % 1004,4 hPa 0,0 l/m 0,0 km/h (0 Bft) N 0 0 min 0 min 0,000 mm 0,0 UV-I 0 W/m 0,0 km/h (0 Bft) 100,00 %
16.12.2017 02:10 -0,7 C 96 % 1004,3 hPa 0,0 l/m 0,0 km/h (0 Bft) N 0 0 min 0 min 0,000 mm 0,0 UV-I 0 W/m 0,0 km/h (0 Bft) 100,00 %
16.12.2017 02:05 -0,7 C 96 % 1004,2 hPa 0,0 l/m 0,0 km/h (0 Bft) N 0 0 min 0 min 0,000 mm 0,0 UV-I 0 W/m 0,0 km/h (0 Bft) 100,00 %
16.12.2017 02:00 -0,6 C 96 % 1004,1 hPa 0,0 l/m 0,0 km/h (0 Bft) N 0 0 min 0 min 0,000 mm 0,0 UV-I 0 W/m 0,0 km/h (0 Bft) 100,00 %
16.12.2017 01:55 -0,6 C 96 % 1004,0 hPa 0,0 l/m 0,0 km/h (0 Bft) S 180 0 min 0 min 0,000 mm 0,0 UV-I 0 W/m 1,6 km/h (1 Bft) 100,00 %
16.12.2017 01:50 -0,6 C 96 % 1004,0 hPa 0,0 l/m 0,0 km/h (0 Bft) N 0 0 min 0 min 0,000 mm 0,0 UV-I 0 W/m 0,0 km/h (0 Bft) 100,00 %
16.12.2017 01:45 -0,7 C 95 % 1003,9 hPa 0,0 l/m 0,0 km/h (0 Bft) N 0 0 min 0 min 0,000 mm 0,0 UV-I 0 W/m 0,0 km/h (0 Bft) 100,00 %
16.12.2017 01:40 -0,6 C 96 % 1003,8 hPa 0,0 l/m 0,0 km/h (0 Bft) S 180 0 min 0 min 0,000 mm 0,0 UV-I 0 W/m 1,6 km/h (1 Bft) 100,00 %
16.12.2017 01:35 -0,6 C 96 % 1003,8 hPa 0,0 l/m 0,0 km/h (0 Bft) N 0 0 min 0 min 0,000 mm 0,0 UV-I 0 W/m 0,0 km/h (0 Bft) 100,00 %
16.12.2017 01:30 -0,6 C 95 % 1003,8 hPa 0,0 l/m 0,0 km/h (0 Bft) N 0 0 min 0 min 0,000 mm 0,0 UV-I 0 W/m 0,0 km/h (0 Bft) 100,00 %
16.12.2017 01:25 -0,5 C 95 % 1003,9 hPa 0,0 l/m 0,0 km/h (0 Bft) N 0 0 min 0 min 0,000 mm 0,0 UV-I 0 W/m 0,0 km/h (0 Bft) 100,00 %
16.12.2017 01:20 -0,5 C 95 % 1003,9 hPa 0,0 l/m 0,0 km/h (0 Bft) N 0 0 min 0 min 0,000 mm 0,0 UV-I 0 W/m 0,0 km/h (0 Bft) 100,00 %
16.12.2017 01:15 -0,4 C 96 % 1004,0 hPa 0,0 l/m 0,0 km/h (0 Bft) N 0 0 min 0 min 0,000 mm 0,0 UV-I 0 W/m 0,0 km/h (0 Bft) 100,00 %
16.12.2017 01:10 -0,4 C 96 % 1004,0 hPa 0,0 l/m 0,0 km/h (0 Bft) N 0 0 min 0 min 0,000 mm 0,0 UV-I 0 W/m 0,0 km/h (0 Bft) 100,00 %
16.12.2017 01:05 -0,5 C 95 % 1004,1 hPa 0,0 l/m 0,0 km/h (0 Bft) N 0 0 min 0 min 0,000 mm 0,0 UV-I 0 W/m 0,0 km/h (0 Bft) 100,00 %
16.12.2017 01:00 -0,5 C 95 % 1004,1 hPa 0,0 l/m 0,0 km/h (0 Bft) N 0 0 min 0 min 0,000 mm 0,0 UV-I 0 W/m 0,0 km/h (0 Bft) 100,00 %
16.12.2017 00:55 -0,4 C 95 % 1004,1 hPa 0,0 l/m 0,0 km/h (0 Bft) N 0 0 min 0 min 0,000 mm 0,0 UV-I 0 W/m 0,0 km/h (0 Bft) 100,00 %
16.12.2017 00:50 -0,4 C 95 % 1004,1 hPa 0,0 l/m 0,0 km/h (0 Bft) N 0 0 min 0 min 0,000 mm 0,0 UV-I 0 W/m 0,0 km/h (0 Bft) 100,00 %
16.12.2017 00:45 -0,4 C 96 % 1004,1 hPa 0,0 l/m 0,0 km/h (0 Bft) N 0 0 min 0 min 0,000 mm 0,0 UV-I 0 W/m 0,0 km/h (0 Bft) 100,00 %
16.12.2017 00:40 -0,4 C 96 % 1004,0 hPa 0,0 l/m 0,0 km/h (0 Bft) N 0 0 min 0 min 0,000 mm 0,0 UV-I 0 W/m 0,0 km/h (0 Bft) 100,00 %
16.12.2017 00:35 -0,3 C 95 % 1004,1 hPa 0,0 l/m 0,0 km/h (0 Bft) N 0 0 min 0 min 0,000 mm 0,0 UV-I 0 W/m 0,0 km/h (0 Bft) 100,00 %
16.12.2017 00:30 -0,3 C 95 % 1004,1 hPa 0,0 l/m 0,0 km/h (0 Bft) N 0 0 min 0 min 0,000 mm 0,0 UV-I 0 W/m 0,0 km/h (0 Bft) 100,00 %
16.12.2017 00:25 -0,3 C 95 % 1004,1 hPa 0,0 l/m 0,0 km/h (0 Bft) N 0 0 min 0 min 0,000 mm 0,0 UV-I 0 W/m 0,0 km/h (0 Bft) 100,00 %
16.12.2017 00:20 -0,3 C 95 % 1004,2 hPa 0,0 l/m 0,0 km/h (0 Bft) N 0 0 min 0 min 0,000 mm 0,0 UV-I 0 W/m 0,0 km/h (0 Bft) 100,00 %
16.12.2017 00:15 -0,3 C 95 % 1004,2 hPa 0,0 l/m 0,0 km/h (0 Bft) N 0 0 min 0 min 0,000 mm 0,0 UV-I 0 W/m 0,0 km/h (0 Bft) 100,00 %
16.12.2017 00:10 -0,2 C 95 % 1004,2 hPa 0,0 l/m 0,0 km/h (0 Bft) N 0 0 min 0 min 0,000 mm 0,0 UV-I 0 W/m 0,0 km/h (0 Bft) 100,00 %
16.12.2017 00:05 -0,2 C 96 % 1004,2 hPa 0,0 l/m 0,0 km/h (0 Bft) N 0 0 min 0 min 0,000 mm 0,0 UV-I 0 W/m 0,0 km/h (0 Bft) 100,00 %
16.12.2017 00:00 -0,2 C 96 % 1004,2 hPa 0,0 l/m 0,0 km/h (0 Bft) N 0 0 min 0 min 0,000 mm 0,0 UV-I 0 W/m 0,0 km/h (0 Bft) 100,00 %
15.12.2017 23:55 -0,1 C 96 % 1004,2 hPa 0,0 l/m 0,0 km/h (0 Bft) N 0 0 min 0 min 0,000 mm 0,0 UV-I 0 W/m 0,0 km/h (0 Bft) 100,00 %
15.12.2017 23:50 -0,1 C 96 % 1004,2 hPa 0,0 l/m 0,0 km/h (0 Bft) N 0 0 min 0 min 0,000 mm 0,0 UV-I 0 W/m 0,0 km/h (0 Bft) 100,00 %
15.12.2017 23:45 -0,1 C 95 % 1004,3 hPa 0,0 l/m 0,0 km/h (0 Bft) N 0 0 min 0 min 0,000 mm 0,0 UV-I 0 W/m 0,0 km/h (0 Bft) 100,00 %
15.12.2017 23:40 -0,1 C 95 % 1004,2 hPa 0,0 l/m 0,0 km/h (0 Bft) N 0 0 min 0 min 0,000 mm 0,0 UV-I 0 W/m 0,0 km/h (0 Bft) 100,00 %
15.12.2017 23:35 -0,1 C 95 % 1004,2 hPa 0,0 l/m 0,0 km/h (0 Bft) N 0 0 min 0 min 0,000 mm 0,0 UV-I 0 W/m 0,0 km/h (0 Bft) 100,00 %
15.12.2017 23:30 -0,1 C 95 % 1004,1 hPa 0,0 l/m 0,0 km/h (0 Bft) N 0 0 min 0 min 0,000 mm 0,0 UV-I 0 W/m 0,0 km/h (0 Bft) 100,00 %
15.12.2017 23:25 0,0 C 95 % 1004,1 hPa 0,0 l/m 0,0 km/h (0 Bft) N 0 0 min 0 min 0,000 mm 0,0 UV-I 0 W/m 0,0 km/h (0 Bft) 100,00 %
15.12.2017 23:20 0,0 C 95 % 1004,1 hPa 0,0 l/m 0,0 km/h (0 Bft) N 0 0 min 0 min 0,000 mm 0,0 UV-I 0 W/m 0,0 km/h (0 Bft) 100,00 %
15.12.2017 23:15 0,0 C 95 % 1004,0 hPa 0,0 l/m 0,0 km/h (0 Bft) N 0 0 min 0 min 0,000 mm 0,0 UV-I 0 W/m 0,0 km/h (0 Bft) 100,00 %
15.12.2017 23:10 0,1 C 95 % 1003,9 hPa 0,0 l/m 0,0 km/h (0 Bft) N 0 0 min 0 min 0,000 mm 0,0 UV-I 0 W/m 0,0 km/h (0 Bft) 100,00 %
15.12.2017 23:05 0,1 C 95 % 1003,9 hPa 0,0 l/m 0,0 km/h (0 Bft) S 180 0 min 0 min 0,000 mm 0,0 UV-I 0 W/m 3,2 km/h (1 Bft) 100,00 %
15.12.2017 23:00 0,1 C 95 % 1003,9 hPa 0,0 l/m 0,0 km/h (0 Bft) S 180 0 min 0 min 0,000 mm 0,0 UV-I 0 W/m 3,2 km/h (1 Bft) 100,00 %
15.12.2017 22:55 0,1 C 95 % 1003,8 hPa 0,0 l/m 0,0 km/h (0 Bft) N 0 0 min 0 min 0,000 mm 0,0 UV-I 0 W/m 0,0 km/h (0 Bft) 100,00 %
15.12.2017 22:50 0,1 C 95 % 1003,8 hPa 0,0 l/m 0,0 km/h (0 Bft) N 0 0 min 0 min 0,000 mm 0,0 UV-I 0 W/m 0,0 km/h (0 Bft) 81,58 %
15.12.2017 22:45 0,1 C 95 % 1003,7 hPa 0,0 l/m 0,0 km/h (0 Bft) N 0 0 min 0 min 0,000 mm 0,0 UV-I 0 W/m 0,0 km/h (0 Bft) 100,00 %
15.12.2017 22:40 0,1 C 95 % 1003,7 hPa 0,0 l/m 0,0 km/h (0 Bft) N 0 0 min 0 min 0,000 mm 0,0 UV-I 0 W/m 0,0 km/h (0 Bft) 100,00 %
15.12.2017 22:35 0,1 C 95 % 1003,7 hPa 0,0 l/m 0,0 km/h (0 Bft) N 0 0 min 0 min 0,000 mm 0,0 UV-I 0 W/m 0,0 km/h (0 Bft) 100,00 %
15.12.2017 22:30 0,1 C 95 % 1003,6 hPa 0,0 l/m 0,0 km/h (0 Bft) S 180 0 min 0 min 0,000 mm 0,0 UV-I 0 W/m 1,6 km/h (1 Bft) 100,00 %
15.12.2017 22:25 0,2 C 95 % 1003,6 hPa 0,0 l/m 0,0 km/h (0 Bft) N 0 0 min 0 min 0,000 mm 0,0 UV-I 0 W/m 0,0 km/h (0 Bft) 100,00 %
15.12.2017 22:20 0,2 C 95 % 1003,6 hPa 0,0 l/m 0,0 km/h (0 Bft) N 0 0 min 0 min 0,000 mm 0,0 UV-I 0 W/m 0,0 km/h (0 Bft) 100,00 %
15.12.2017 22:15 0,2 C 95 % 1003,6 hPa 0,0 l/m 0,0 km/h (0 Bft) N 0 0 min 0 min 0,000 mm 0,0 UV-I 0 W/m 0,0 km/h (0 Bft) 100,00 %
15.12.2017 22:10 0,3 C 95 % 1003,6 hPa 0,0 l/m 0,0 km/h (0 Bft) N 0 0 min 0 min 0,000 mm 0,0 UV-I 0 W/m 0,0 km/h (0 Bft) 100,00 %
15.12.2017 22:05 0,3 C 95 % 1003,5 hPa 0,0 l/m 0,0 km/h (0 Bft) N 0 0 min 0 min 0,000 mm 0,0 UV-I 0 W/m 0,0 km/h (0 Bft) 100,00 %
15.12.2017 22:00 0,3 C 95 % 1003,4 hPa 0,0 l/m 0,0 km/h (0 Bft) N 0 0 min 0 min 0,000 mm 0,0 UV-I 0 W/m 0,0 km/h (0 Bft) 100,00 %
_ Min-Zeit 03:30 17:20 22:00 - 22:00 - - - - - - - 22:00 22:50
Minimum _ -0,9 C 94 % 1003,4 hPa - 0,0 km/h (0 Bft) - - - - - - - 0,0 km/h (0 Bft) 81,58 %
_ Max-Zeit 15:10 09:10 21:30 09:40 16:40 - - 22:00 09:40 13:00 11:30 11:40 16:40 22:00
Maximum _ 2,6 C 97 % 1017,5 hPa 0,2 l/m 9,2 km/h
N-NW (2 Bft)
- - 0 min 10 min 0,026 mm 0,5 UV-I 75 W/m 16,8 km/h
NW (3 Bft)
100,00 %
Durchschnitt _ 0,6 C 96 % 1008,4 hPa #0,4 l/m 0,7 km/h (0 Bft) N - #0 min. #20 min. #0,152 mm 0,4 UV-I 15 W/m 2,5 km/h (1 Bft) 99,39 %